• In Uzbekistan
  • List of Countries
  • For 7 days
  • Water Temperature
  • Satellite Maps
  • Weather Map
  • Weather Widgets
  • user-avatar
    Login

    Hourly Weather Roma

    Today, 22 October, Sunday

    Time Temperature Precipitation Wind Pressure Humidity
    00:00 +15°C° 0 mm 1 mps 628 mmHg 33%
    01:00 +15°C° 0 mm 1 mps 628 mmHg 38%
    02:00 +14°C° 0 mm 1 mps 628 mmHg 38%
    03:00 +13°C° 0 mm 1 mps 628 mmHg 43%
    04:00 +13°C° 0 mm 1 mps 628 mmHg 48%
    05:00 +12°C° 0 mm 1 mps 627 mmHg 52%
    06:00 +15°C° 0 mm 2 mps 628 mmHg 47%
    07:00 +17°C° 0 mm 2 mps 629 mmHg 41%
    08:00 +20°C° 0 mm 3 mps 630 mmHg 37%
    09:00 +21°C° 0 mm 4 mps 630 mmHg 36%
    10:00 +23°C° 0 mm 5 mps 630 mmHg 35%
    11:00 +26°C° 0 mm 6 mps 631 mmHg 35%
    12:00 +26°C° 0 mm 6 mps 630 mmHg 32%
    13:00 +27°C° 0 mm 6 mps 630 mmHg 30%
    14:00 +23°C° 0 mm 6 mps 630 mmHg 50%
    15:00 +23°C° 0.8 mm 5 mps 629 mmHg 49%
    16:00 +23°C° 0.8 mm 4 mps 629 mmHg 48%
    17:00 +22°C° 0.8 mm 3 mps 629 mmHg 47%
    18:00 +21°C° 0.4 mm 3 mps 629 mmHg 53%
    19:00 +20°C° 0.4 mm 2 mps 628 mmHg 58%
    20:00 +18°C° 0.4 mm 2 mps 628 mmHg 64%
    21:00 +18°C° 1.3 mm 2 mps 628 mmHg 67%
    22:00 +18°C° 1.3 mm 2 mps 628 mmHg 69%
    23:00 +17°C° 1.3 mm 2 mps 628 mmHg 72%

    Tomorrow, 23 October, Monday

    Time Temperature Precipitation Wind Pressure Humidity
    00:00 +17°C° 0.1 mm 2 mps 628 mmHg 72%
    01:00 +17°C° 0.1 mm 2 mps 627 mmHg 71%
    02:00 +18°C° 0.1 mm 1 mps 627 mmHg 71%
    03:00 +18°C° 0 mm 1 mps 627 mmHg 69%
    04:00 +17°C° 0 mm 2 mps 627 mmHg 67%
    05:00 +17°C° 0 mm 2 mps 627 mmHg 65%
    06:00 +18°C° 0.1 mm 2 mps 628 mmHg 62%
    07:00 +19°C° 0.1 mm 2 mps 628 mmHg 59%
    08:00 +20°C° 0.1 mm 3 mps 629 mmHg 56%
    09:00 +21°C° 0.1 mm 3 mps 629 mmHg 52%
    10:00 +22°C° 0.1 mm 4 mps 629 mmHg 48%
    11:00 +25°C° 0.1 mm 5 mps 629 mmHg 44%
    12:00 +24°C° 0.4 mm 6 mps 629 mmHg 43%
    13:00 +24°C° 0.4 mm 6 mps 629 mmHg 42%
    14:00 +26°C° 0.4 mm 6 mps 628 mmHg 41%
    15:00 +24°C° 0.3 mm 6 mps 628 mmHg 41%
    16:00 +25°C° 0.3 mm 5 mps 628 mmHg 40%
    17:00 +25°C° 0.3 mm 4 mps 627 mmHg 40%
    18:00 +22°C° 0.3 mm 4 mps 627 mmHg 47%
    19:00 +21°C° 0.3 mm 3 mps 627 mmHg 53%
    20:00 +19°C° 0.3 mm 2 mps 627 mmHg 60%
    21:00 +19°C° 0.7 mm 2 mps 627 mmHg 62%
    22:00 +19°C° 0.7 mm 2 mps 627 mmHg 63%
    23:00 +18°C° 0.7 mm 2 mps 627 mmHg 65%

    Day after tomorrow, 24 October, Tuesday

    Time Temperature Precipitation Wind Pressure Humidity
    00:00 +18°C° 0.3 mm 2 mps 626 mmHg 66%
    01:00 +17°C° 0.3 mm 2 mps 626 mmHg 66%
    02:00 +17°C° 0.3 mm 2 mps 625 mmHg 67%
    03:00 +17°C° 0 mm 2 mps 625 mmHg 66%
    04:00 +17°C° 0 mm 2 mps 625 mmHg 65%
    05:00 +17°C° 0 mm 2 mps 625 mmHg 65%
    06:00 +18°C° 0 mm 2 mps 625 mmHg 59%
    07:00 +20°C° 0 mm 2 mps 626 mmHg 54%
    08:00 +21°C° 0 mm 3 mps 627 mmHg 49%
    09:00 +24°C° 0 mm 3 mps 627 mmHg 43%
    10:00 +25°C° 0 mm 4 mps 627 mmHg 38%
    11:00 +27°C° 0 mm 5 mps 627 mmHg 32%
    12:00 +27°C° 0 mm 6 mps 627 mmHg 32%
    13:00 +28°C° 0 mm 6 mps 626 mmHg 32%
    14:00 +28°C° 0 mm 7 mps 626 mmHg 31%
    15:00 +27°C° 0 mm 7 mps 626 mmHg 34%
    16:00 +27°C° 0 mm 7 mps 625 mmHg 36%
    17:00 +26°C° 0 mm 7 mps 625 mmHg 39%
    18:00 +24°C° 0.1 mm 6 mps 625 mmHg 45%
    19:00 +22°C° 0.1 mm 4 mps 624 mmHg 51%
    20:00 +21°C° 0.1 mm 3 mps 624 mmHg 57%
    21:00 +20°C° 0 mm 2 mps 624 mmHg 57%
    22:00 +20°C° 0 mm 2 mps 624 mmHg 58%
    23:00 +20°C° 0 mm 2 mps 624 mmHg 58%

    25 October, Wednesday

    Time Temperature Precipitation Wind Pressure Humidity
    00:00 +19°C° 0 mm 2 mps 624 mmHg 60%
    01:00 +19°C° 0 mm 2 mps 623 mmHg 61%
    02:00 +18°C° 0 mm 2 mps 623 mmHg 63%
    03:00 +18°C° 0 mm 2 mps 622 mmHg 64%
    04:00 +17°C° 0 mm 2 mps 622 mmHg 66%
    05:00 +17°C° 0 mm 2 mps 622 mmHg 67%
    06:00 +19°C° 0 mm 3 mps 623 mmHg 60%
    07:00 +21°C° 0 mm 3 mps 624 mmHg 53%
    08:00 +22°C° 0 mm 4 mps 625 mmHg 45%
    09:00 +24°C° 0 mm 6 mps 625 mmHg 39%
    10:00 +27°C° 0 mm 7 mps 625 mmHg 33%
    11:00 +29°C° 0 mm 9 mps 625 mmHg 26%
    12:00 +31°C° 0 mm 10 mps 625 mmHg 24%
    13:00 +31°C° 0 mm 10 mps 625 mmHg 22%
    14:00 +32°C° 0 mm 11 mps 624 mmHg 20%
    15:00 +32°C° 0 mm 10 mps 624 mmHg 19%
    16:00 +31°C° 0 mm 9 mps 624 mmHg 18%
    17:00 +31°C° 0 mm 9 mps 624 mmHg 17%
    18:00 +28°C° 0 mm 7 mps 624 mmHg 20%
    19:00 +25°C° 0 mm 4 mps 623 mmHg 23%
    20:00 +23°C° 0 mm 2 mps 623 mmHg 25%
    21:00 +21°C° 0 mm 2 mps 623 mmHg 29%
    22:00 +21°C° 0 mm 1 mps 623 mmHg 33%
    23:00 +20°C° 0 mm 1 mps 622 mmHg 36%

    26 October, Thursday

    Time Temperature Precipitation Wind Pressure Humidity
    00:00 +19°C° 0 mm 1 mps 622 mmHg 35%
    01:00 +18°C° 0 mm 1 mps 621 mmHg 34%
    02:00 +18°C° 0 mm 1 mps 621 mmHg 33%
    03:00 +16°C° 0 mm 1 mps 621 mmHg 32%
    04:00 +15°C° 0 mm 1 mps 621 mmHg 32%
    05:00 +14°C° 0 mm 1 mps 620 mmHg 31%
    06:00 +18°C° 0 mm 1 mps 621 mmHg 26%
    07:00 +19°C° 0 mm 2 mps 622 mmHg 20%
    08:00 +23°C° 0 mm 2 mps 623 mmHg 14%
    09:00 +23°C° 0 mm 4 mps 624 mmHg 14%
    10:00 +26°C° 0 mm 6 mps 624 mmHg 14%
    11:00 +27°C° 0 mm 7 mps 624 mmHg 13%
    12:00 +28°C° 0 mm 8 mps 623 mmHg 14%
    13:00 +28°C° 0 mm 9 mps 623 mmHg 15%
    14:00 +29°C° 0 mm 10 mps 622 mmHg 16%
    15:00 +28°C° 0 mm 10 mps 622 mmHg 17%
    16:00 +28°C° 0 mm 10 mps 622 mmHg 19%
    17:00 +27°C° 0 mm 10 mps 621 mmHg 20%
    18:00 +24°C° 0 mm 7 mps 621 mmHg 24%
    19:00 +22°C° 0 mm 5 mps 621 mmHg 27%
    20:00 +20°C° 0 mm 2 mps 620 mmHg 30%
    21:00 +19°C° 0 mm 2 mps 620 mmHg 32%
    22:00 +19°C° 0 mm 2 mps 620 mmHg 33%
    23:00 +18°C° 0 mm 2 mps 620 mmHg 35%

    27 October, Friday

    Time Temperature Precipitation Wind Pressure Humidity
    00:00 +17°C° 0 mm 2 mps 620 mmHg 38%
    01:00 +16°C° 0 mm 2 mps 620 mmHg 41%
    02:00 +15°C° 0 mm 2 mps 619 mmHg 43%
    03:00 +14°C° 0 mm 1 mps 619 mmHg 45%
    04:00 +14°C° 0 mm 1 mps 619 mmHg 47%
    05:00 +13°C° 0 mm 1 mps 619 mmHg 48%
    06:00 +14°C° 0 mm 2 mps 620 mmHg 42%
    07:00 +16°C° 0 mm 2 mps 621 mmHg 36%
    08:00 +18°C° 0 mm 3 mps 622 mmHg 30%
    09:00 +19°C° 0 mm 4 mps 622 mmHg 27%
    10:00 +20°C° 0 mm 6 mps 622 mmHg 24%
    11:00 +21°C° 0 mm 7 mps 623 mmHg 21%
    12:00 +22°C° 0 mm 8 mps 623 mmHg 19%
    13:00 +22°C° 0 mm 8 mps 623 mmHg 18%
    14:00 +22°C° 0 mm 9 mps 623 mmHg 17%
    15:00 +21°C° 0 mm 9 mps 623 mmHg 22%
    16:00 +20°C° 0 mm 8 mps 622 mmHg 26%
    17:00 +17°C° 0 mm 8 mps 622 mmHg 31%
    18:00 +15°C° 0 mm 7 mps 623 mmHg 37%
    19:00 +13°C° 0 mm 5 mps 623 mmHg 43%
    20:00 +11°C° 0 mm 4 mps 623 mmHg 49%
    21:00 +10°C° 0 mm 4 mps 623 mmHg 51%
    22:00 +9°C° 0 mm 3 mps 623 mmHg 53%
    23:00 +9°C° 0 mm 3 mps 624 mmHg 55%
    Show more